VINASAT-1

Last updated on Thu Feb 05 2026 00:02:48 GMT+0000 (Coordinated Universal Time)

1 32767U 08018A 26035.40133514 -.00000334 00000+0 00000+0 0 9998 2 32767 0.0508 274.3508 0002034 79.2609 57.3376 1.00271043 65258
UTC large
Height (km)
Speed (km/s)
/
Latitude / Longitude
Inclination (degrees)
Orbital Period (minutes)
Azimuth
Elevation
Range (km)
Doppler Factor

Next 0 passes for location: London (51.5072 / 0.1276)

Sorry there are no passes over London.